Back to catalog

TITAN 3C TRANSTAGE DEB

LostHEO
NORAD 36982·DEBRIS·🇺🇸 United States

Launched Dec 21, 1965 from Cape Canaveral Space Force Station

Loading…

Next Passes (next 24 hours)

TLE

StaleSource: Space-Track

Epoch: Sep 15, 2023, 06:09 UTC

1 36982U 65108DN  23258.25669026 -.00005288  00000-0 -11666-1 0  9990
2 36982  27.0562 247.8844 6348737  70.9204 343.6392  3.39370827187951

Track TITAN 3C TRANSTAGE DEB in real time with AllMySat

Download on the App Store